[[{"header":{"parameterUnit":"m.s-1","parameterCategory":1,"la1":30.2992,"la2":30.254,"lo1":-89.0895,"lo2":-89.0443,"dy":0.0025,"dx":0.0025,"nx":19,"ny":19,"refTime":"2026-04-28T03:00:00:Z","depth":0,"parameterNumber":2,"parameterNumberName":"U-component_of_WINDS"},"data":[0,0,0,1.8658,1.866,1.878,1.878,1.8932,1.8933,0,0,0,0,0,0,0,0,0,0,0,1.862,1.8621,1.8658,1.8661,1.8779,1.878,1.8931,1.8933,0,0,0,0,0,0,0,0,0,0,0,1.862,1.8621,1.8622,1.8661,1.8779,1.878,1.8931,1.8842,0,0,0,0,0,0,0,0,0,0,1.8727,1.8689,1.8621,1.8622,1.8662,1.8779,1.878,1.8838,1.8848,1.8877,0,1.8901,0,1.8919,1.8943,1.8943,0,0,0,1.8663,1.8681,1.8715,1.8622,1.8663,1.8779,1.8727,1.8843,1.8854,1.889,1.8903,1.8908,1.8922,1.8944,1.8945,1.9102,1.9103,0,0,1.8656,1.8641,1.8707,1.8722,1.8701,1.8723,1.873,1.885,1.8864,1.8903,1.8912,1.8924,1.8945,1.8946,1.9102,1.9102,0,0,0,1.8636,1.8636,1.8667,1.8716,1.8737,1.8726,1.8735,1.8858,1.887,1.8914,1.8926,1.8946,1.8948,1.9101,1.9102,1.9117,0,0,0,1.8632,1.8624,1.8664,1.8656,1.8735,1.8799,1.874,1.8861,1.8875,1.8925,1.8946,1.8949,1.91,1.9101,1.9116,1.9128,0,0,0,1.8614,1.8622,1.8638,1.8655,1.8705,1.8797,1.8816,1.8865,1.8883,1.8944,1.8949,1.91,1.9101,1.9114,1.9125,1.9165,0,0,0,1.859,1.8651,1.8638,1.8712,1.8704,1.8805,1.8815,1.8891,1.8945,1.8946,1.91,1.9102,1.9113,1.9123,1.9163,1.9195,1.9207,0,0,1.8659,1.8659,1.8703,1.8696,1.8794,1.8788,1.8891,1.8956,1.8977,1.906,1.9064,1.9116,1.9125,1.9164,1.928,1.9289,0,0,0,1.872,1.8752,1.8782,1.8831,1.8882,1.8926,1.8977,1.9001,1.9072,1.9015,1.9142,1.9147,1.9171,1.9188,1.9196,1.9218,1.9109,1.9108,1.9108,1.8795,1.8818,1.8894,1.8931,1.8979,1.9031,1.9073,1.9115,1.9124,1.9154,1.9179,1.9246,1.9264,1.927,1.9293,1.9198,1.9198,1.9198,1.9198,1.8899,1.8948,1.8958,1.9035,1.906,1.9126,1.9179,1.9183,1.9249,1.9229,1.9251,1.9227,1.928,1.9301,1.9199,1.9199,1.9199,1.9199,1.9199,1.8951,1.8978,1.9006,1.9081,1.9137,1.9173,1.9236,1.9256,1.9276,1.9298,1.9327,1.9327,1.9329,1.931,1.931,1.9311,1.9311,1.9311,1.9311,1.8993,1.9024,1.9074,1.9133,1.9168,1.9217,1.9271,1.9307,1.9352,1.9362,1.9362,1.9369,1.928,1.9258,1.9315,1.9314,1.9314,1.9313,1.9313,1.9089,1.9071,1.9147,1.9182,1.9254,1.9309,1.9334,1.9406,1.9439,1.947,1.9472,1.9403,1.9405,1.9399,1.9381,1.9466,1.9466,1.9466,1.9466,1.9133,1.9136,1.9219,1.9274,1.9331,1.9362,1.9449,1.9493,1.9534,1.9557,1.9548,1.9525,1.9517,1.9524,1.9515,1.9498,1.9612,1.9612,1.9612,1.9194,1.9203,1.9273,1.9312,1.937,1.942,1.9504,1.9568,1.9613,1.9619,1.9575,1.9569,1.9532,1.9519,1.9523,1.9509,1.9478,0,0]},{"header":{"parameterUnit":"m.s-1","parameterCategory":1,"la1":30.2992,"la2":30.254,"lo1":-89.0895,"lo2":-89.0443,"dy":0.0025,"dx":0.0025,"nx":19,"ny":19,"refTime":"2026-04-28T03:00:00:Z","depth":0,"parameterNumber":3,"parameterNumberName":"V-component_of_WINDS"},"data":[0,0,0,2.1514,2.1516,2.16,2.1601,2.1695,2.1696,0,0,0,0,0,0,0,0,0,0,0,2.1482,2.1483,2.1514,2.1516,2.16,2.1601,2.1695,2.1696,0,0,0,0,0,0,0,0,0,0,0,2.1482,2.1483,2.1483,2.1516,2.16,2.1601,2.1695,2.1636,0,0,0,0,0,0,0,0,0,0,2.1556,2.152,2.1483,2.1483,2.1517,2.16,2.1601,2.1633,2.164,2.1652,0,2.1662,0,2.1681,2.1702,2.1702,0,0,0,2.1521,2.1515,2.1544,2.1483,2.1518,2.16,2.1564,2.1637,2.1644,2.166,2.1664,2.1667,2.1682,2.1702,2.1703,2.1761,2.1761,0,0,2.1516,2.1494,2.1539,2.1548,2.1536,2.1561,2.1566,2.1641,2.1643,2.1664,2.167,2.1684,2.1703,2.1704,2.1761,2.1761,0,0,0,2.15,2.149,2.1518,2.1544,2.156,2.1563,2.1569,2.164,2.1651,2.1671,2.1685,2.1703,2.1704,2.1761,2.1761,2.1742,0,0,0,2.1497,2.1481,2.1515,2.1502,2.1559,2.1601,2.1566,2.1645,2.1655,2.1684,2.1703,2.1705,2.1761,2.1761,2.1743,2.1737,0,0,0,2.1479,2.1479,2.1488,2.1501,2.1537,2.1601,2.1616,2.1648,2.1663,2.1702,2.1705,2.1761,2.1761,2.1743,2.1737,2.1746,0,0,0,2.1453,2.1469,2.1488,2.1511,2.1536,2.1588,2.1616,2.1656,2.1687,2.1704,2.1761,2.1761,2.1743,2.1738,2.1746,2.1749,2.1748,0,0,2.1461,2.147,2.1485,2.1504,2.1548,2.1577,2.1619,2.1668,2.1692,2.1736,2.1738,2.1742,2.1738,2.1746,2.1751,2.175,0,0,0,2.148,2.1491,2.1507,2.1537,2.1576,2.1609,2.1654,2.1673,2.1712,2.171,2.1748,2.1746,2.1752,2.1754,2.1754,2.176,2.1761,2.1761,2.1761,2.1458,2.1489,2.1516,2.1557,2.1585,2.1633,2.1658,2.1691,2.1713,2.1721,2.1735,2.1734,2.1736,2.1736,2.1742,2.1739,2.1738,2.1738,2.1738,2.1472,2.1492,2.1522,2.156,2.1592,2.1624,2.167,2.1684,2.1718,2.1726,2.1733,2.1739,2.1734,2.1741,2.1737,2.1737,2.1738,2.1738,2.1738,2.1461,2.1476,2.1499,2.1546,2.1577,2.1618,2.1649,2.1677,2.1703,2.171,2.1727,2.1728,2.1732,2.1716,2.1716,2.1716,2.1716,2.1716,2.1716,2.1441,2.1467,2.1491,2.1535,2.1557,2.1591,2.1639,2.1662,2.1694,2.1712,2.1712,2.1733,2.1728,2.1726,2.1716,2.1716,2.1716,2.1716,2.1716,2.1444,2.1448,2.1485,2.1508,2.1561,2.1591,2.1626,2.1671,2.1694,2.1708,2.1728,2.172,2.173,2.1731,2.1729,2.1722,2.1722,2.1722,2.1722,2.1435,2.1443,2.1488,2.1523,2.156,2.1596,2.1636,2.1674,2.1713,2.1729,2.1734,2.1734,2.1734,2.1745,2.1745,2.1744,2.174,2.1741,2.1741,2.1439,2.1452,2.1481,2.1521,2.1565,2.1602,2.1641,2.1679,2.1724,2.1742,2.1742,2.1741,2.1742,2.1741,2.1759,2.1759,2.1758,0,0]}]]